Total_Precipitation_Accumulation
0.06 0.11 0.17 0.21 0.19 0.15 0.11 0.09 0.13 0.21 0.39 0.50 0.62 0.71 0.75 0.75 0.70 0.68 0.69 0.68 0.61 0.60 0.67 0.77 0.92 1.04 1.15 1.22 1.41 1.49 1.71 1.89 1.96 2.05 2.06 2.06 2.15 2.16 2.08 2.10 2.11 2.25 2.30 2.33
0.05 0.08 0.13 0.15 0.18 0.13 0.10 0.09 0.10 0.20 0.43 0.54 0.60 0.65 0.75 0.72 0.72 0.71 0.68 0.70 0.75 0.78 0.79 0.81 0.87 0.97 1.08 1.15 1.37 1.60 1.90 2.19 2.23 2.28 2.26 2.35 2.49 2.56 2.45 2.42 2.52 2.55 2.46 2.39
0.08 0.11 0.12 0.17 0.18 0.15 0.17 0.16 0.19 0.29 0.44 0.53 0.60 0.68 0.88 0.87 0.81 0.81 0.82 0.84 0.91 1.02 0.99 0.95 0.97 1.00 1.10 1.23 1.42 1.72 2.01 2.26 2.41 2.47 2.51 2.61 2.70 2.71 2.67 2.73 2.90 2.89 2.75 2.56
0.13 0.18 0.25 0.22 0.22 0.22 0.26 0.28 0.32 0.41 0.46 0.60 0.81 0.91 1.08 1.12 0.98 0.95 0.88 0.85 0.92 1.09 1.13 1.10 1.11 1.17 1.31 1.50 1.76 2.05 2.25 2.39 2.50 2.53 2.57 2.62 2.69 2.59 2.63 2.77 2.80 2.82 2.73 2.58
0.24 0.27 0.28 0.32 0.35 0.37 0.42 0.55 0.55 0.64 0.73 0.84 0.94 0.93 1.02 0.95 0.85 0.86 0.87 0.93 1.00 1.12 1.24 1.33 1.38 1.44 1.52 1.68 1.90 2.15 2.34 2.36 2.34 2.44 2.55 2.60 2.63 2.64 2.66 2.67 2.53 2.42 2.35 2.34
0.38 0.41 0.45 0.49 0.52 0.48 0.56 1.03 1.07 1.06 0.99 0.95 1.00 1.20 1.17 0.95 0.87 0.90 0.98 1.04 1.13 1.15 1.20 1.34 1.44 1.47 1.58 1.78 2.00 2.21 2.37 2.40 2.38 2.50 2.60 2.64 2.70 2.72 2.63 2.52 2.45 2.37 2.23 2.22
0.55 0.60 0.58 0.55 0.52 0.54 0.92 1.26 1.19 1.17 1.19 1.11 1.19 1.25 1.22 1.10 1.09 1.05 1.07 1.16 1.17 1.20 1.23 1.28 1.40 1.50 1.64 1.77 1.91 2.06 2.22 2.36 2.52 2.69 2.76 2.76 2.75 2.67 2.57 2.46 2.47 2.44 2.32 2.22
0.74 0.94 1.02 0.72 0.61 0.88 1.19 1.05 1.18 1.31 1.30 1.28 1.24 1.17 1.19 1.20 1.20 1.16 1.10 1.18 1.23 1.26 1.39 1.46 1.52 1.56 1.67 1.68 1.77 1.95 2.01 2.15 2.24 2.39 2.48 2.50 2.58 2.52 2.53 2.48 2.38 2.29 2.18 2.06
1.02 1.17 1.00 0.84 0.88 1.01 1.06 1.15 1.21 1.35 1.43 1.39 1.41 1.32 1.19 1.22 1.18 1.33 1.39 1.39 1.40 1.33 1.37 1.44 1.53 1.63 1.72 1.72 1.68 1.74 1.84 1.99 2.14 2.21 2.36 2.44 2.49 2.45 2.35 2.27 2.14 2.01 1.92 1.85
1.25 1.31 1.17 1.10 1.06 1.01 1.03 1.15 1.23 1.36 1.44 1.52 1.48 1.32 1.20 1.16 1.11 1.11 1.17 1.21 1.31 1.29 1.32 1.47 1.45 1.50 1.62 1.69 1.67 1.72 1.81 1.86 1.99 2.07 2.16 2.36 2.41 2.27 2.10 1.95 1.86 1.84 1.81 1.83
1.45 1.49 1.29 1.22 1.18 1.22 1.21 1.20 1.20 1.29 1.36 1.42 1.36 1.28 1.26 1.19 1.10 1.07 1.06 1.05 1.09 1.12 1.17 1.24 1.25 1.28 1.37 1.49 1.56 1.55 1.55 1.55 1.59 1.74 1.89 2.04 2.08 2.00 1.82 1.72 1.81 1.84 1.80 1.78
1.66 1.46 1.48 1.52 1.42 1.40 1.50 1.47 1.41 1.45 1.56 1.53 1.35 1.25 1.20 1.10 1.03 0.99 0.92 0.89 0.95 1.00 1.01 1.07 1.12 1.21 1.30 1.49 1.63 1.66 1.60 1.51 1.46 1.45 1.52 1.71 1.91 1.98 1.85 1.63 1.67 1.62 1.56 1.50
1.49 1.39 1.49 1.56 1.58 1.64 1.76 1.68 1.60 1.61 1.63 1.54 1.40 1.24 1.14 1.07 0.95 0.90 0.84 0.82 0.90 1.00 1.07 1.18 1.15 1.09 1.14 1.31 1.50 1.65 1.61 1.52 1.43 1.38 1.42 1.54 1.76 1.99 2.04 1.81 1.59 1.47 1.31 1.19
1.43 1.49 1.70 1.73 1.77 1.78 1.77 1.77 1.73 1.75 1.65 1.56 1.45 1.26 1.16 1.17 1.11 1.01 0.94 0.99 1.08 1.18 1.24 1.27 1.24 1.17 1.13 1.22 1.35 1.44 1.46 1.44 1.31 1.27 1.35 1.47 1.70 1.98 2.14 2.06 1.85 1.56 1.28 1.09
1.64 1.63 1.67 1.63 1.72 1.72 1.74 1.79 1.73 1.80 1.76 1.68 1.50 1.33 1.18 1.12 1.11 1.10 1.10 1.20 1.36 1.37 1.33 1.29 1.30 1.23 1.13 1.12 1.21 1.29 1.36 1.37 1.31 1.27 1.30 1.35 1.58 1.89 2.09 2.13 2.01 1.80 1.45 1.15
1.83 1.72 1.56 1.55 1.73 1.72 1.71 1.73 1.63 1.68 1.74 1.67 1.54 1.40 1.34 1.30 1.24 1.18 1.21 1.34 1.59 1.64 1.49 1.39 1.39 1.32 1.20 1.14 1.12 1.14 1.21 1.21 1.10 1.08 1.12 1.15 1.25 1.46 1.74 1.92 1.90 1.80 1.55 1.14
1.79 1.86 1.78 1.74 1.80 1.81 1.74 1.63 1.56 1.62 1.70 1.71 1.66 1.56 1.52 1.50 1.49 1.48 1.53 1.58 1.69 1.70 1.49 1.35 1.31 1.23 1.13 1.15 1.18 1.15 1.13 1.12 1.03 0.92 0.97 1.04 1.12 1.32 1.59 1.78 1.74 1.65 1.48 1.15
1.55 1.57 1.59 1.67 1.80 1.85 1.72 1.55 1.49 1.51 1.57 1.65 1.67 1.62 1.64 1.68 1.73 1.81 1.83 1.75 1.65 1.50 1.33 1.21 1.16 1.10 1.04 0.97 0.94 0.92 0.92 0.95 0.91 0.88 0.95 1.00 1.04 1.23 1.49 1.65 1.59 1.50 1.42 1.25
1.44 1.44 1.46 1.49 1.59 1.62 1.52 1.49 1.45 1.34 1.28 1.35 1.42 1.46 1.53 1.58 1.66 1.83 1.79 1.79 1.79 1.62 1.33 1.13 1.14 1.02 0.96 0.93 0.93 0.86 0.80 0.81 0.80 0.80 0.85 0.92 1.04 1.21 1.37 1.43 1.42 1.41 1.28 1.15
1.53 1.49 1.48 1.56 1.55 1.48 1.39 1.32 1.35 1.27 1.27 1.31 1.25 1.25 1.31 1.37 1.45 1.66 1.71 1.79 1.78 1.61 1.34 1.16 1.00 0.91 0.83 0.78 0.80 0.81 0.85 0.88 0.89 0.91 0.94 1.04 1.14 1.24 1.29 1.27 1.23 1.21 1.19 1.18
1.44 1.43 1.37 1.48 1.45 1.32 1.23 1.14 1.20 1.18 1.21 1.20 1.11 1.11 1.12 1.14 1.20 1.41 1.72 1.92 1.69 1.38 1.18 1.11 0.94 0.80 0.71 0.71 0.71 0.69 0.76 0.85 0.93 1.03 1.08 1.15 1.20 1.25 1.25 1.23 1.16 1.12 1.13 1.17
1.34 1.32 1.29 1.31 1.32 1.25 1.07 1.02 1.06 1.08 1.07 0.98 0.91 0.96 0.98 1.04 1.13 1.26 1.45 1.70 1.68 1.54 1.19 0.97 0.84 0.77 0.74 0.74 0.69 0.71 0.76 0.77 0.84 0.92 0.97 1.05 1.17 1.26 1.26 1.19 1.10 1.08 1.12 1.16
1.41 1.25 1.23 1.26 1.30 1.21 1.06 0.98 0.99 1.07 1.00 0.92 0.93 0.95 0.94 1.02 1.11 1.35 1.49 1.37 1.39 1.50 1.22 1.05 1.05 0.94 0.80 0.74 0.73 0.74 0.75 0.80 0.90 0.95 0.95 0.99 1.01 1.06 1.09 1.06 1.07 1.07 1.10 1.08
1.42 1.29 1.20 1.16 1.17 1.16 1.13 1.01 0.94 1.02 0.97 0.87 0.85 0.82 0.86 0.97 1.00 1.07 1.22 1.29 1.31 1.33 1.13 1.07 1.06 0.92 0.78 0.72 0.80 0.85 0.92 0.99 0.99 0.95 0.89 0.89 0.89 0.88 0.91 0.90 0.88 0.93 0.97 0.98
1.42 1.30 1.20 1.12 1.14 1.12 1.05 0.97 0.94 0.98 0.90 0.86 0.88 0.86 0.83 0.87 0.99 1.07 1.11 1.12 1.24 1.29 1.16 1.10 0.99 0.92 0.81 0.76 0.86 0.99 1.03 0.94 0.88 0.83 0.80 0.81 0.85 0.87 0.84 0.88 0.92 0.89 0.87 0.88
1.40 1.31 1.25 1.14 1.10 1.05 0.97 0.95 1.00 1.01 0.92 0.93 0.95 0.89 0.84 0.86 0.93 0.99 1.06 1.06 1.09 1.21 1.14 1.00 0.84 0.81 0.85 0.88 0.90 0.95 0.92 0.85 0.80 0.79 0.78 0.80 0.85 0.90 0.88 0.92 0.93 0.90 0.89 0.91
1.37 1.31 1.28 1.19 1.12 1.04 1.01 1.00 1.04 1.10 1.06 1.03 1.04 1.03 1.02 1.02 1.03 1.08 1.07 1.05 1.03 1.01 0.95 0.85 0.77 0.73 0.76 0.81 0.80 0.80 0.80 0.80 0.76 0.76 0.79 0.82 0.87 0.90 0.85 0.84 0.83 0.83 0.83 0.83